Starlink 1568

operational
NORAD ID: 46080 Int'l Des: 2020-055 Owner: SPXS Country: US Constellation: starlink
LEOCIRCULAR

关于 Starlink 1568

正在加载描述...

实时位置

正在加载3D地球...

即将过境

高度历史

Altitude vs Time

uPlot chart will show altitude changes over time

两行轨道根数

1 46080U 20055BF 25304.65780199 .00038786 00000-0 11766-2 0 9994
2 46080 53.0660 283.2521 0004940 41.2182 318.9192 15.33751532290300
Epoch: Oct 31, 2025 • Age: 27 hours

当前状态

高度 466.0 km
速度 7.64 km/s
星下点 22.84°N, 112.85°E
发射日期 Aug 7, 2020
运行时间 5.2 years
类型 internet

技术详情

分类 Payload
质量 260.00 kg
干质量 248.00 kg
总质量 260.00 kg
长度 0.20 m
直径 2.80 m
跨度 9.00 m
形状 Box + pan
制造商 SPXS
平台类型 Starlink
阶段状态 In Orbit
所有者/国家 SPXS/US

大型星座

Loading constellations...